Miscellaneous Local Product
Issued by NWS North Platte, NE

Home | Current Version | Previous Version | Graphics & Text | Print | Product List | Glossary On
Versions: 1 2 3 4 5 6 7 8 9 10 11 12 13 14 15 16 17 18 19 20 21 22 23 24 25 26 27 28 29 30 31 32 33 34 35 36 37 38 39 40 41 42 43 44 45 46 47 48 49 50
000
AXUS43 KLBF 041210
MISLBF


WESTERN AND NORTH CENTRAL NEBRASKA HOURLY WEATHER ROUNDUP
NATIONAL WEATHER SERVICE NORTH PLATTE NE
700 AM CDT FRI SEP 04 2015

NOTE: "FAIR" INDICATES FEW OR NO CLOUDS BELOW 12,000 FEET WITH NO
SIGNIFICANT WEATHER AND/OR OBSTRUCTIONS TO VISIBILITY.

NOTE: STATIONS NOT REPORTING VARIABLES SUCH AS SKY/WEATHER OR
PRESSURE ARE PROVIDED BY THE NEBRASKA DEPARTMENT OF
ROADS...RAWS...AND APRS NETWORKS...AND ARE NOT UNDER
NATIONAL WEATHER SERVICE QUALITY CONTROL.

...OBSERVATIONS IN AND NEAR THE EASTERN PANHANDLE OF NEBRASKA...

CITY           SKY/WX    TMP DP  RH WIND       PRES   REMARKS
PINE RIDGE     CLEAR     61  54  77 SW6       29.83R
CHADRON        CLEAR     58  51  78 E3        29.82R
ALLIANCE       CLEAR     55  51  86 CALM      29.87S
SIDNEY         CLEAR     52  50  93 W7        29.92R
CRESCENT LAKE    N/A     59  52  77 CALM        N/A
BIG SPRINGS      N/A     57  54  91 SW3         N/A
$$

...OBSERVATIONS IN NORTH CENTRAL NEBRASKA...

CITY           SKY/WX    TMP DP  RH WIND       PRES   REMARKS
VALENTINE      MOCLDY    65  62  90 S7        29.80R
THEDFORD       MOCLDY    67  64  91 S5        29.82F
AINSWORTH      CLOUDY    69  63  81 S5        29.82R
O`NEILL        CLOUDY    73  65  75 S8        29.79S
ORD            CLOUDY    74  62  66 SE13G22   29.80R
BROKEN BOW     MOCLDY    70  62  76 SE7       29.81R
SPRINGVIEW       N/A     69  63  81 CALM        N/A
SARGENT          N/A     69  63  81 CALM        N/A
CHAMBERS         N/A     73  63  71 S7          N/A
EWING            N/A     70  62  74 E3          N/A
$$

...OBSERVATIONS IN SOUTHWEST NEBRASKA AND FAR NORTHEAST COLORADO...

CITY           SKY/WX    TMP DP  RH WIND       PRES   REMARKS
WRAY           CLOUDY    58  55  91 W7        29.88R
HOLYOKE        FAIR      61  55  82 W9        29.88R
IMPERIAL       CLEAR     62  57  83 NW9       29.84R
OGALLALA       CLEAR     58  57  97 SW5       29.85R
NORTH PLATTE   PTCLDY    63  60  90 NW5       29.82R
MCCOOK         PTCLDY    68  57  68 SE7       29.79R
LEXINGTON      CLEAR     73  61  66 SE13      29.79S
PAXTON           N/A     65  62  90 CALM        N/A
BRADY            N/A     64  60  86 NE3         N/A
CALLAWAY         N/A     64  62  93 SE5         N/A
$$

...OBSERVATIONS IN CENTRAL LINCOLN COUNTY AREA...

CITY           SKY/WX    TMP DP  RH WIND       PRES   REMARKS
N.P. AIRPORT   PTCLDY    63  60  90 NW5       29.82R
N.P. DOWNTOWN    N/A     66  62  87 CALM        N/A
N.P. SOUTHEAST   N/A     66  61  85 CALM        N/A
N.P. HILLCREST   N/A     65  62  89 NE3         N/A
$$

...SOME OBSERVATIONS FROM AROUND THE REGION...

CITY           SKY/WX    TMP DP  RH WIND       PRES   REMARKS
DENVER         PTCLDY    59  48  67 SW13      29.99S
LARAMIE        CLEAR     45  50 100 SW6       30.10S
CHEYENNE       CLEAR     55  43  63 W10       30.02R
SCOTTSBLUFF    CLEAR     54  52  93 E5        29.88S
RAPID CITY     PTCLDY    66  56  70 CALM      29.79R
PIERRE         LGT RAIN  68  65  90 N7        29.70F
WINNER         FAIR      70  63  78 S8        29.76R
SIOUX FALLS    MOCLDY    74  66  76 S12       29.83R
OMAHA          MOCLDY    74  68  81 S10       29.91R
GRAND ISLAND   CLOUDY    71  66  84 SE14      29.85R
KANSAS CITY    PTCLDY    72  67  84 S8G21     29.95R
WICHITA        MOCLDY    70  63  78 S9        29.92R
HAYS           PTCLDY    75  57  53 S17G23    29.84S
LIBERAL        PTCLDY    68  54  60 SE9       29.90S
GOODLAND       PTCLDY    61  53  75 W8        29.87R
$$



USA.gov is the U.S. government's official web portal to all federal, state and local government web resources and services.